THORAD AGENA D DEB, 5755

Orbit data source: Space-Track

THORAD AGENA D DEB, 5755 is space debris in LEO originally from a launch on Tue, 30 Sep 1969 UTC launched from the Air Force Western Test Range (AFWTR). Debris objects in space refer to the collection of defunct objects orbiting the Earth. Examples of debris include non-operational satellites, rocket bodies, and fragments generated from explosions, collisions, or faulty payload assembly.

Loading next visibility...
Identifier
5755, 1969-082JP
Orbit
LEO
Country
Flag of USUS
Related business
Manufacturer
Unknown
Mission
Spacecraft
Bus & Motor
Unknown
Mass
Unknown
Launch date (UTC)
1969-09-30 (57 years ago)
Launch vehicle
Unknown
Launch site
Air Force Western Test Range (AFWTR)
Object type
Payload
Rocket body
Debris
Shape & HBR
Unknown shape, 0.1 m
Radar Cross Section
Medium (>0.1 m² and <1 m²)

Expand to show TLE details & history
Last TLE update: 21 hours ago

TLE from 21 hours ago
0 THORAD AGENA D DEB
1 05755U 69082JP  26173.44803314  .00001621  00000-0  44025-3 0  9991
2 05755  69.9256 281.4314 0006485  10.5198 349.6069 14.49312930935449
Epoch: 2026-06-22T10:45Z
TLE epoch observation values (Epoch: 2026-06-22T10:45:10.063Z)
Latitude
-0.00006°
Longitude
-150.49436°
Altitude
725.726 km
Speed
7.495 km/s
True Right ascension
18h 45m 43s
True Declination
0° 00' 00"
Sunlit
Object was in full shadow at epoch
Visualization orbit readout
Latitude
Unknown
Longitude
Unknown
Altitude
Unknown
Speed
Unknown
Apparent Right ascension
Unknown
Apparent Declination
Unknown
Sunlit
N/A
Visualization observer readout
Local Sidereal Time
18:33:32
Azimuth
Unknown
Elevation
Unknown
Doppler factor
Unknown
Orbital elements
Apogee altitude
730.502 km
Perigee altitude
721.288 km
Semi-major axis
7,104.032 km
Eccentricity
0.00065
Inclination
69.9256°
RAAN
281.4314°
Arg. of periapsis
10.5198°
True anomaly
349.59348°
Mean anomaly
349.6069°
Eccentric anomaly
349.60019°
Mean motion
3.62481 °/min
Orbital period
99.32 mins
BSTAR
0.00044025
Loading maneuver chart data...
Computing Atmospheric mass density...

Documentation

Showing up to 5 results
|